This is the latest recevied weather packets stored in our database for station/object KC3UTO. If no packets are shown the sender has not sent any weather packets the latest 10 day(s).
| Time | Temp. | Humidity | Pressure | Rain* | Wind** | Luminosity | Snow |
|---|---|---|---|---|---|---|---|
| 1777912590 | 20° C | 32% | 1011.2 hPa | 0 mm | - | 100 W/m² | - |
| 1777912286 | 20° C | 31% | 1011.3 hPa | 0 mm | - | 103 W/m² | - |
| 1777911982 | 20° C | 32% | 1011.5 hPa | 0 mm | - | 393 W/m² | - |
| 1777911679 | 19.44° C | 32% | 1011.6 hPa | 0 mm | - | 905 W/m² | - |
| 1777911375 | 19.44° C | 31% | 1011.4 hPa | 0 mm | - | 905 W/m² | - |
| 1777911073 | 19.44° C | 31% | 1011.8 hPa | 0 mm | - | 893 W/m² | - |
| 1777910770 | 19.44° C | 32% | 1011.7 hPa | 0 mm | - | 317 W/m² | - |
| 1777910467 | 19.44° C | 30% | 1011.7 hPa | 0 mm | - | 809 W/m² | - |
| 1777910163 | 20° C | 30% | 1011.7 hPa | 0 mm | - | 884 W/m² | - |
| 1777909861 | 19.44° C | 32% | 1011.9 hPa | 0 mm | - | 882 W/m² | - |
| 1777909557 | 19.44° C | 32% | 1011.9 hPa | 0 mm | - | 890 W/m² | - |
| 1777909254 | 19.44° C | 30% | 1012 hPa | 0 mm | - | 272 W/m² | - |
| 1777908953 | 19.44° C | 31% | 1012.1 hPa | 0 mm | - | 101 W/m² | - |
| 1777908651 | 18.89° C | 33% | 1012.2 hPa | 0 mm | - | 702 W/m² | - |
| 1777908347 | 18.89° C | 32% | 1012.3 hPa | 0 mm | - | 580 W/m² | - |
| 1777908043 | 18.89° C | 30% | 1012.3 hPa | 0 mm | - | 863 W/m² | - |
| 1777907739 | 18.89° C | 32% | 1012.2 hPa | 0 mm | - | 839 W/m² | - |
| 1777907439 | 18.89° C | 31% | 1012.3 hPa | 0 mm | - | 829 W/m² | - |
| 1777907136 | 18.89° C | 31% | 1012.6 hPa | 0 mm | - | 433 W/m² | - |
| 1777906834 | 18.89° C | 31% | 1012.3 hPa | 0 mm | - | 802 W/m² | - |
| 1777906531 | 18.33° C | 34% | 1012.3 hPa | 0 mm | - | 794 W/m² | - |
| 1777906226 | 18.33° C | 36% | 1012.3 hPa | 0 mm | - | 790 W/m² | - |
| 1777905923 | 17.78° C | 35% | 1012.5 hPa | 0 mm | - | 766 W/m² | - |
| 1777905620 | 17.78° C | 34% | 1012.6 hPa | 0 mm | - | 763 W/m² | - |
| 1777905317 | 17.78° C | 35% | 1012.6 hPa | 0 mm | - | 738 W/m² | - |
* Rain latest hour (hover to see other rain measurements)
** Current wind speed in m/s (hover to see current wind gust speed)